This demonstration page uses our WeatherBlox Daily Observations layout. Learn more.

Left ArrowRight Arrow

Hourly Observations for March 30, 2019

Temp ( °F °C ) Dew Point ( °F °C ) Humidity (%) Winds ( mph kmh ) Pressure ( in mb ) Visibility ( mi km ) Precip ( " mm )
12:51 am 00:51 Clear 54 12.2 22 -5.6 29 29 NNW 8 13 29.90 1013 10 16 N/A
1:51 am 01:51 Clear 52 11.1 19 -7.2 27 27 NNW 8 13 29.89 1012 10 16 N/A
2:51 am 02:51 Clear 45 7.2 23 -5 42 42 N N/A 29.89 1012 10 16 N/A
3:51 am 03:51 Clear 45 7.2 24 -4.4 44 44 N N/A 29.91 1013 10 16 N/A
4:51 am 04:51 Clear 41 5 23 -5 49 49 SE 5 7 29.93 1014 10 16 N/A
5:51 am 05:51 Clear 43 6.1 24 -4.4 47 47 S 8 13 29.95 1014 10 16 N/A
6:51 am 06:51 Sunny 44 6.7 24 -4.4 45 45 N N/A 29.99 1016 10 16 N/A
7:51 am 07:51 Sunny 52 11.1 24 -4.4 34 34 N N/A 30.00 1016 10 16 N/A
8:51 am 08:51 Sunny 57 13.9 21 -6.1 25 25 SW 3 6 30.01 1016 10 16 N/A
9:51 am 09:51 Sunny 61 16.1 22 -5.6 22 22 VRB 5 7 30.02 1017 10 16 N/A
10:51 am 10:51 Sunny 66 18.9 16 -8.9 14 14 N N/A 30.01 1016 10 16 N/A
11:51 am 11:51 Sunny 70 21.1 15 -9.4 12 12 undefined N/A 29.97 1015 10 16 N/A
12:51 pm 12:51 Sunny 73 22.8 16 -8.9 11 11 S 10 17 29.91 1013 10 16 N/A
1:51 pm 13:51 Sunny 74 23.3 16 -8.9 11 11 VRB 7 11 29.89 1012 10 16 N/A
2:51 pm 14:51 Sunny 75 23.9 16 -8.9 10 10 S 9 15 29.88 1012 10 16 N/A
3:51 pm 15:51 Sunny 76 24.4 11 -11.7 8 8 VRB 5 7 29.86 1011 10 16 N/A
4:51 pm 16:51 Sunny 77 25 9 -12.8 7 7 N 6 9 29.85 1011 10 16 N/A
5:51 pm 17:51 Sunny 76 24.4 8 -13.3 7 7 N N/A 29.85 1011 10 16 N/A
6:51 pm 18:51 Clear 70 21.1 12 -11.1 10 10 S 3 6 29.86 1011 10 16 N/A
7:51 pm 19:51 Clear 65 18.3 11 -11.7 12 12 E 5 7 29.87 1012 10 16 N/A
8:51 pm 20:51 Clear 62 16.7 11 -11.7 13 13 SE 6 9 29.88 1012 10 16 N/A
9:51 pm 21:51 Clear 65 18.3 24 -4.4 21 21 ESE 17 28 29.91 1013 10 16 N/A
10:51 pm 22:51 Clear 61 16.1 24 -4.4 24 24 ESE 18 30 29.93 1014 10 16 N/A
11:51 pm 23:51 Clear 59 15 24 -4.4 26 26 E 13 20 29.95 1014 10 16 N/A

Powered by AerisWeather